Miscellaneous Local Product
Issued by NWS Hastings, NE

Home | Current Version | Previous Version | Graphics & Text | Print | Product List | Glossary On
Versions: 1 2 3 4 5 6 7 8 9 10 11 12 13 14 15 16 17 18 19 20 21 22 23 24 25 26 27 28 29 30 31 32 33 34 35 36 37 38 39 40 41 42 43 44 45 46 47 48 49 50
000
AXUS43 KGID 032302
MISGRI

GID CWA HOURLY WEATHER ROUNDUP
NATIONAL WEATHER SERVICE HASTINGS NE
600 PM CDT TUE MAY 03 2016

NOTE: "FAIR" INDICATES FEW OR NO CLOUDS BELOW 12,000 FEET WITH NO
SIGNIFICANT WEATHER AND/OR OBSTRUCTIONS TO VISIBILITY.

...SOUTH CENTRAL NEBRASKA...

CITY           SKY/WX    TMP DP  RH WIND       PRES   REMARKS
GRAND ISLAND   MOSUNNY   69  40  34 W13       29.99F
HASTINGS       MOSUNNY   68  40  35 NW12      30.00F
KEARNEY        MOSUNNY   68  39  34 NW10      30.02F
ORD            SUNNY     69  39  33 NW16      29.97F
YORK           MOSUNNY   68  39  34 NW10      29.98F
AURORA         MOSUNNY   69  38  32 NW12G22   29.98F
LEXINGTON      SUNNY     67  41  37 NW9G17    30.02F
HOLDREGE       SUNNY     66  38  36 NW12      30.02F
HEBRON         MOSUNNY   70  37  29 N9G17     29.99S

...NEBRASKA PANHANDLE...

CITY           SKY/WX    TMP DP  RH WIND       PRES   REMARKS
CHADRON        SUNNY     74  36  25 N10       30.08S
ALLIANCE       SUNNY     69  36  29 N12       30.09F
SCOTTSBLUFF    MOSUNNY   73  35  25 N14       30.10F
SIDNEY         SUNNY     69  24  18 N20G25    30.13S

...WESTERN AND NORTH CENTRAL NEBRASKA...

CITY           SKY/WX    TMP DP  RH WIND       PRES   REMARKS
VALENTINE      SUNNY     71  34  25 N15G25    30.01F
AINSWORTH      SUNNY     69  38  32 N14G23    30.01S
ONEILL         SUNNY     70  38  31 NW16G22   29.98S
BROKEN BOW     LGT RAIN  69  39  33 NW18      30.00F
IMPERIAL       SUNNY     69  34  27 N12G21    30.07F
NORTH PLATTE   SUNNY     70  37  29 NW9       30.03F
MCCOOK         SUNNY     69  40  34 NW8       30.04F

...EASTERN NEBRASKA...

CITY           SKY/WX    TMP DP  RH WIND       PRES   REMARKS
NORFOLK        SUNNY     70  42  36 NW15G23   29.92F
SO SIOUX CITY  SUNNY     69  45  41 NW18G29   29.89F
TEKAMAH        MOSUNNY   69  42  37 W22G29    29.90F
COLUMBUS       SUNNY     70  41  35 NW13G21   29.95F
ALBION         SUNNY     68  42  38 NW13G23   29.96S
OMAHA EPPLEY   PTSUNNY   71  42  35 W15G25    29.91F
OFFUTT AFB     PTSUNNY   70  43  38 NW16G26   29.91F
MILLARD        PTSUNNY   71  43  36 W13G22    29.92F
LINCOLN        MOSUNNY   71  38  29 W14       29.96F
NEBRASKA CITY  MOSUNNY   67  39  35 W13       29.96S
BEATRICE       MOSUNNY   68  41  37 NW8       29.97S
FALLS CITY     MOSUNNY   67  42  40 NW10      29.95F

...NORTHERN KANSAS...

CITY           SKY/WX    TMP DP  RH WIND       PRES   REMARKS
GOODLAND       SUNNY     67  34  29 N17G24    30.09S
HILL CITY      SUNNY     70  42  36 NW10      30.05S
NORTON         PTCLDY    66  37  34 NW9       30.03S
PHILLIPSBURG   MOSUNNY   68  43  40 CALM      30.02S
SMITH CENTER   MOSUNNY   66  45  45 N3        30.01S
BELOIT         SUNNY     68  39  34 NW5       29.98F
HAYS           PTSUNNY   66  43  42 NW10      30.03S
RUSSELL        MOSUNNY   69  43  38 W10       30.00F
CONCORDIA      MOSUNNY   70  41  34 NW14      29.98F
SALINA         SUNNY     73  44  35 NW10      29.98S
TOPEKA         MOSUNNY   71  42  35 W7G17     29.96F



USA.gov is the U.S. government's official web portal to all federal, state and local government web resources and services.